HST 1 20580U 90037B 25033.88682078 .00010824 00000-0 44093-3 0 9992 2 20580 28.4670 233.7411 0002847 45.2106 314.8719 15.22820558712173 ISS (ZARYA) 1 25544U 98067A 25034.07131547 .00016284 00000-0 29531-3 0 9996 2 25544 51.6354 251.3091 0003822 264.9942 95.0610 15.49744873494367 CXO 1 25867U 99040B 25034.57271092 .00000777 00000-0 00000+0 0 9997 2 25867 46.4752 136.7449 8617405 306.6835 0.7290 0.37806517 26591